This is the latest recevied weather packets stored in our database for station/object OE6ACM-14. If no packets are shown the sender has not sent any weather packets the latest 10 day(s).
| Time | Temp. | Humidity | Pressure | Rain* | Wind** | Luminosity | Snow |
|---|---|---|---|---|---|---|---|
| 1777980425 | 26.11° C | 24% | 919.7 hPa | - | - | - | - |
| 1777980125 | 26.11° C | 25% | 919.8 hPa | - | - | - | - |
| 1777979825 | 26.11° C | 26% | 919.7 hPa | - | - | - | - |
| 1777979525 | 26.11° C | 24% | 919.7 hPa | - | - | - | - |
| 1777979225 | 25.56° C | 25% | 919.7 hPa | - | - | - | - |
| 1777978925 | 25° C | 26% | 919.8 hPa | - | - | - | - |
| 1777978625 | 24.44° C | 25% | 919.9 hPa | - | - | - | - |
| 1777978325 | 25° C | 24% | 919.9 hPa | - | - | - | - |
| 1777978025 | 25.56° C | 24% | 919.9 hPa | - | - | - | - |
| 1777977725 | 26.11° C | 24% | 919.8 hPa | - | - | - | - |
| 1777977425 | 25.56° C | 24% | 919.9 hPa | - | - | - | - |
| 1777977125 | 24.44° C | 24% | 920 hPa | - | - | - | - |
| 1777976825 | 25° C | 24% | 919.9 hPa | - | - | - | - |
| 1777976525 | 23.89° C | 23% | 919.8 hPa | - | - | - | - |
| 1777976225 | 25° C | 24% | 920 hPa | - | - | - | - |
| 1777975925 | 25° C | 24% | 920.1 hPa | - | - | - | - |
| 1777975625 | 26.67° C | 23% | 920 hPa | - | - | - | - |
| 1777975325 | 26.11° C | 22% | 920.1 hPa | - | - | - | - |
| 1777975025 | 27.78° C | 22% | 920.2 hPa | - | - | - | - |
| 1777974725 | 28.89° C | 21% | 920.1 hPa | - | - | - | - |
| 1777974425 | 28.89° C | 20% | 920.1 hPa | - | - | - | - |
| 1777974125 | 29.44° C | 19% | 920.1 hPa | - | - | - | - |
| 1777973825 | 28.89° C | 20% | 920.2 hPa | - | - | - | - |
| 1777973525 | 28.89° C | 20% | 920.2 hPa | - | - | - | - |
| 1777973225 | 29.44° C | 20% | 920.3 hPa | - | - | - | - |
* Rain since midnight (hover to see other rain measurements)
** Current wind speed in m/s (hover to see current wind gust speed)